                ,  1.160,  1.308,  1.456,  1.604,  1.751,  1.899,  2.047,  2.194,  2.342,  2.490,  2.638,  2.785,  2.933,  3.081,  3.229,  3.376,  3.524,  3.672,  3.819,  3.967,  4.115,  4.263,  4.410,  4.558,  4.706,  4.853,  5.001,  5.149,  5.297,  5.444
2005/10/26 00:00,   -2.1,   -3.3,   -5.0,   -4.6,   -3.1,   -0.8,   -0.4,    0.3,   -0.3,   -1.8,   -4.1,   -5.9,   -7.5,   -8.8,   -8.8,   -8.5,   -7.2,   -6.5,   -6.3,   -5.2,   -4.4,   -3.8,   -2.6,  999.0,   -0.9,   -1.4,   -1.3,   -0.3,    0.4,    0.9
2005/10/26 00:10,   -1.3,   -4.0,   -5.2,   -3.9,   -3.2,   -1.9,   -1.1,   -1.3,   -2.7,   -4.7,   -5.2,   -5.1,   -5.6,   -6.7,   -7.4,   -7.9,   -7.3,   -6.3,   -5.8,   -5.3,   -3.8,   -2.9,  999.0,  999.0,   -1.1,   -0.5,   -0.7,   -0.3,    0.6,  999.0
2005/10/26 00:20,   -1.8,   -4.3,   -4.5,   -3.6,   -3.9,   -2.9,   -1.4,   -1.1,   -2.8,   -3.6,   -4.4,   -4.7,   -6.2,   -7.3,   -8.0,   -8.3,   -7.0,   -6.3,   -5.3,   -4.7,   -4.5,   -5.8,  999.0,   -2.9,   -2.0,   -1.5,   -0.8,   -1.2,   -1.7,   -1.1
2005/10/26 00:30,   -2.2,   -4.6,   -4.3,   -4.4,   -4.5,   -4.5,   -4.6,   -3.7,   -3.7,   -4.4,   -5.4,   -6.4,   -7.1,   -8.5,   -8.9,   -9.0,   -8.0,   -6.0,   -3.9,   -2.0,   -2.0,   -4.2,  999.0,  999.0,   -1.3,   -1.2,   -1.2,   -1.3,   -0.8,   -0.2
2005/10/26 00:40,   -2.2,   -4.4,   -4.9,   -4.8,   -4.9,   -4.5,   -4.9,   -5.2,   -5.7,   -5.3,   -5.7,   -6.3,   -6.7,   -7.7,   -8.7,   -8.3,   -7.7,   -7.1,   -5.3,   -3.3,   -1.5,   -1.7,   -3.5,  999.0,   -2.5,   -2.3,   -1.0,   -0.7,   -0.6,   -0.3
2005/10/26 00:50,   -2.1,   -4.0,   -4.6,   -4.4,   -3.5,   -4.2,   -5.2,   -6.7,   -6.8,   -7.3,   -7.5,   -6.7,   -6.4,   -7.1,   -8.1,   -8.8,   -8.0,   -8.4,   -7.4,   -6.7,   -4.9,   -2.9,  999.0,  999.0,   -2.7,   -2.2,   -1.8,   -0.9,   -0.8,   -0.8
2005/10/26 01:00,   -0.9,   -2.9,   -3.6,   -4.1,   -2.8,   -2.4,   -3.9,   -5.1,   -7.4,   -8.4,   -9.3,   -8.2,   -7.5,   -7.9,   -7.8,   -6.4,   -5.7,   -4.5,   -4.2,   -4.3,   -2.6,   -1.1,  999.0,  999.0,   -4.0,   -3.1,   -2.1,   -2.0,   -1.8,   -1.4
2005/10/26 01:10,   -0.6,   -2.0,   -3.4,   -3.7,   -2.3,   -2.7,   -4.3,   -4.9,   -6.1,   -7.1,   -6.8,   -7.1,   -7.6,   -6.7,   -6.5,   -6.1,   -5.3,   -4.6,   -4.6,   -3.4,   -3.2,   -3.6,  999.0,  999.0,  999.0,   -3.2,  999.0,   -2.6,   -3.1,   -2.9
2005/10/26 01:20,   -0.7,   -2.2,   -4.0,   -4.2,   -2.7,   -2.5,   -2.9,   -4.5,   -6.0,   -6.6,   -6.7,   -6.8,   -6.6,   -5.8,   -5.6,   -5.5,   -4.3,   -4.1,   -3.9,   -3.4,   -2.9,   -3.6,  999.0,  999.0,  999.0,  999.0,   -3.1,   -2.8,   -2.2,   -2.0
2005/10/26 01:30,   -0.1,   -1.9,   -3.7,   -2.9,   -2.2,   -2.7,   -3.8,   -5.6,   -5.6,   -6.2,   -6.3,   -6.3,   -6.1,   -5.9,   -5.8,   -4.2,   -3.3,   -2.5,   -2.4,   -1.6,   -2.7,  999.0,  999.0,  999.0,   -1.8,   -2.6,   -2.8,   -2.9,   -2.5,   -2.1
2005/10/26 01:40,    0.2,   -1.3,   -3.6,   -3.1,   -3.2,   -4.6,   -5.4,   -5.3,   -5.2,   -4.8,   -5.3,   -5.1,   -5.1,   -4.7,   -5.0,   -4.4,   -3.8,   -3.4,   -2.9,   -3.0,   -4.9,  999.0,  999.0,   -4.6,   -3.7,   -3.1,   -2.5,   -2.8,   -2.8,   -2.9
2005/10/26 01:50,    0.6,   -0.9,   -3.3,   -2.7,   -2.7,   -4.1,   -5.4,   -5.3,   -5.6,   -5.8,   -6.7,   -7.2,   -7.7,   -5.9,   -4.5,   -4.6,   -4.7,   -4.9,   -4.5,   -3.0,   -3.6,  999.0,  999.0,  999.0,   -4.2,   -5.0,   -4.2,   -2.5,   -1.9,   -1.5
2005/10/26 02:00,    0.4,   -1.0,   -3.3,   -4.2,   -4.0,   -4.1,   -5.8,   -6.8,   -6.5,   -6.2,   -6.1,   -7.6,   -7.1,   -5.9,   -4.8,   -3.7,   -3.3,   -3.4,   -3.4,   -3.4,   -3.7,   -4.1,  999.0,  999.0,   -4.0,   -3.7,   -3.0,   -1.9,   -1.7,   -1.2
2005/10/26 02:10,    0.1,   -1.2,   -3.0,   -3.9,   -4.8,   -4.8,   -5.8,   -6.0,   -6.3,   -5.4,   -5.9,   -5.8,   -5.6,   -4.8,   -4.2,   -3.9,   -3.9,   -4.6,   -5.4,  999.0,  999.0,  999.0,  999.0,  999.0,   -2.9,   -1.7,   -1.8,   -1.2,   -0.5,   -0.1
2005/10/26 02:20,    1.2,   -0.8,   -2.7,   -3.6,   -4.5,   -6.0,   -6.8,   -5.9,   -5.6,   -5.5,   -4.3,   -4.9,   -3.7,   -3.2,   -3.9,   -4.2,   -4.3,   -4.6,   -5.7,  999.0,  999.0,  999.0,  999.0,   -3.6,   -3.0,   -2.4,   -2.1,   -2.2,   -2.2,   -2.0
2005/10/26 02:30,    0.3,   -0.8,   -2.6,   -3.1,   -4.1,   -5.8,   -6.3,   -5.8,   -5.3,   -4.9,   -4.3,   -4.9,   -4.1,   -3.9,   -4.7,   -4.5,   -4.1,   -4.0,   -4.2,   -4.2,   -4.5,  999.0,  999.0,  999.0,   -6.1,   -6.5,   -5.9,   -5.1,   -4.6,   -4.2
2005/10/26 02:40,    0.3,   -1.0,   -2.6,   -3.5,   -4.8,   -6.1,   -6.7,   -6.3,   -6.1,   -5.6,   -5.4,   -5.3,   -4.7,   -4.4,   -4.6,   -4.9,   -5.1,   -4.7,   -3.8,   -3.5,   -3.9,  999.0,  999.0,   -7.1,   -9.0,  -10.4,   -8.9,   -8.6,   -8.5,   -7.5
2005/10/26 02:50,    0.6,   -0.9,   -2.4,   -3.5,   -5.3,   -6.8,   -6.1,   -5.2,   -5.7,   -5.9,   -6.7,   -5.9,   -5.5,   -5.2,   -5.7,   -6.2,   -6.1,   -6.4,   -5.1,   -4.7,  999.0,  999.0,  999.0,  999.0,   -9.5,  -10.8,   -8.4,   -8.3,   -8.1,   -8.2
2005/10/26 03:00,    1.1,   -0.5,   -1.9,   -3.1,   -5.2,   -6.6,   -6.1,   -5.6,   -6.2,   -7.5,   -8.2,   -7.6,   -6.9,   -6.9,   -6.5,   -6.5,   -5.9,   -5.6,   -5.1,   -5.6,   -7.2,  999.0,   -8.4,  999.0,  -10.0,  -10.4,   -8.1,   -7.8,   -8.2,   -8.1
2005/10/26 03:10,    0.9,   -0.8,   -2.2,   -3.2,   -5.3,   -6.8,   -6.7,   -6.6,   -6.2,   -6.4,   -7.4,   -6.3,   -6.3,   -5.8,   -6.1,   -5.9,   -5.2,   -5.4,   -5.7,   -6.0,   -6.3,  999.0,  999.0,   -8.8,   -9.4,   -9.9,   -8.2,   -7.5,   -7.5,   -7.9
2005/10/26 03:20,    0.6,   -1.3,   -1.8,   -3.3,   -5.5,   -6.3,   -6.4,   -6.3,   -6.3,   -6.8,   -6.3,   -5.7,   -5.6,   -5.6,   -5.8,   -5.1,   -4.8,   -5.8,   -7.2,  999.0,  999.0,  999.0,   -8.6,   -9.1,  -10.0,   -8.5,   -6.6,   -6.4,   -6.4,   -4.9
2005/10/26 03:30,    0.4,   -1.3,   -1.5,   -3.4,   -5.7,   -5.9,   -6.4,   -6.9,   -7.1,   -7.0,   -6.1,   -5.8,   -6.2,   -6.1,   -6.3,   -7.1,   -8.3,   -8.5,   -8.3,   -7.9,   -7.4,  999.0,   -9.0,   -8.5,  -10.6,   -9.8,   -6.5,   -5.6,   -5.5,   -4.6
2005/10/26 03:40,    0.2,   -1.2,   -2.1,   -4.7,   -5.3,   -5.7,   -6.5,   -7.2,   -7.2,   -6.4,   -5.6,   -5.8,   -6.3,   -7.0,   -7.8,   -8.0,   -8.5,   -8.9,   -8.5,   -7.5,   -7.0,  999.0,  999.0,   -8.4,   -9.3,   -8.0,   -6.2,   -5.8,   -5.1,   -4.7
2005/10/26 03:50,    0.1,   -1.0,   -3.0,   -5.3,   -5.9,   -6.5,   -6.0,   -6.9,   -7.0,   -7.0,   -6.0,   -6.3,   -7.0,   -7.5,   -7.2,   -6.9,   -6.9,   -7.1,   -8.0,   -8.3,   -7.5,  999.0,  999.0,   -6.3,   -5.5,   -4.8,   -4.1,   -3.2,   -2.4,   -1.7
2005/10/26 04:00,    0.0,   -1.1,   -3.2,   -5.2,   -6.4,   -6.4,   -5.7,   -6.7,   -6.7,   -7.0,   -7.1,   -7.6,   -7.9,   -7.9,   -8.0,   -7.6,   -7.8,   -7.6,   -8.1,   -8.2,   -7.7,  999.0,  999.0,   -3.8,   -5.1,   -4.6,   -3.0,   -3.0,   -3.5,   -3.3
2005/10/26 04:10,    0.0,   -1.4,   -3.3,   -5.0,   -6.4,   -6.1,   -5.7,   -6.0,   -6.5,   -6.5,   -6.6,   -7.1,   -7.7,   -7.4,   -7.9,   -7.5,   -7.6,   -7.6,   -6.9,   -6.1,  999.0,  999.0,  999.0,   -4.2,   -3.9,   -4.0,   -3.8,   -3.4,   -3.5,   -3.4
2005/10/26 04:20,   -0.3,   -1.4,   -3.0,   -4.5,   -6.4,   -6.0,   -6.4,   -6.6,   -6.6,   -6.5,   -7.2,   -7.7,   -8.0,   -7.9,   -8.3,   -7.8,   -6.6,   -5.4,   -5.5,   -5.1,  999.0,  999.0,  999.0,   -2.1,   -2.0,   -2.1,   -1.7,   -1.7,   -2.6,   -3.2
2005/10/26 04:30,   -0.1,   -1.6,   -3.2,   -5.0,   -6.1,   -6.1,   -7.0,   -6.4,   -6.7,   -7.3,   -7.6,   -8.1,   -8.1,   -7.7,   -7.8,   -7.4,   -5.8,   -4.1,   -3.5,   -3.1,   -2.7,  999.0,   -2.4,  999.0,   -3.2,   -4.0,   -4.1,   -4.3,   -4.7,   -4.6
2005/10/26 04:40,    0.3,   -2.1,   -4.4,   -4.9,   -5.3,   -5.1,   -5.7,   -6.2,   -6.2,   -7.1,   -7.5,   -7.5,   -7.1,   -6.6,   -5.6,   -4.8,   -4.9,   -5.2,   -5.7,   -6.3,   -5.6,   -5.3,  999.0,  999.0,   -7.4,   -7.1,   -6.4,   -6.4,   -6.3,   -5.9
2005/10/26 04:50,   -0.0,   -2.1,   -3.4,   -4.3,   -4.8,   -5.1,   -5.1,   -6.0,   -6.9,   -7.4,   -7.0,   -7.3,   -7.1,   -6.9,   -6.4,   -6.3,   -7.1,   -7.3,   -6.8,   -6.5,   -6.5,   -6.7,   -7.8,   -7.9,   -7.5,   -5.9,   -4.9,   -4.7,   -4.8,   -4.8
2005/10/26 05:00,  999.0,    3.9,   -0.2,   -4.1,   -4.4,   -4.8,   -5.6,   -6.0,   -8.4,   -8.6,   -7.3,   -6.5,   -5.8,   -5.5,   -5.7,   -6.7,   -7.0,   -7.0,   -6.3,   -6.7,   -7.2,   -7.2,   -6.7,   -5.6,   -6.1,   -5.3,   -4.7,   -4.8,   -4.1,   -4.1
2005/10/26 05:10,   -1.2,   -2.4,  999.0,   -1.3,   -2.6,   -4.2,   -8.0,   -2.5,   -7.4,   -7.3,   -5.4,   -5.4,   -4.9,   -4.3,   -3.7,   -3.4,   -3.7,   -4.0,   -4.3,   -4.8,   -5.9,   -5.0,   -4.4,   -5.1,   -4.9,   -5.4,   -4.9,   -4.3,   -3.0,   -3.1
2005/10/26 05:20,  999.0,    8.5,    7.7,   -0.3,   -0.9,  999.0,  999.0,  999.0,  999.0,   -7.0,   -6.5,   -4.7,   -4.0,   -4.4,   -4.5,   -4.7,   -4.9,   -5.2,   -5.4,   -5.2,   -5.1,   -5.4,   -5.7,   -5.6,   -5.3,   -5.4,   -3.6,   -2.1,   -1.5,   -2.2
2005/10/26 05:30,    1.5,  999.0,  999.0,  999.0,  999.0,  999.0,  999.0,  999.0,   -1.5,  999.0,  999.0,   -5.4,   -4.5,   -4.5,   -4.7,   -4.4,   -4.3,   -4.5,   -4.4,   -4.3,   -4.5,   -4.9,   -5.9,   -5.6,   -6.7,   -6.1,   -5.2,   -3.3,   -2.5,   -2.8
2005/10/26 05:40,    0.6,   -4.4,   -1.3,  999.0,  999.0,  999.0,  999.0,   -3.2,  999.0,  -10.4,   -6.3,   -5.3,   -5.3,   -5.5,   -4.9,   -5.6,   -5.8,   -5.7,   -6.2,   -5.7,   -6.1,   -6.2,   -6.3,   -6.1,   -6.0,   -5.3,   -4.3,   -3.1,   -2.6,   -2.1
2005/10/26 05:50,  999.0,  999.0,   -1.8,  999.0,  999.0,   -6.5,   -7.0,   -8.0,   -6.7,   -5.5,   -4.8,   -4.3,   -4.6,   -5.2,   -5.4,   -5.1,   -4.9,   -4.5,   -4.8,   -4.4,   -4.7,   -4.5,   -5.6,   -5.3,   -5.6,   -4.8,   -3.0,   -2.2,   -1.8,   -1.5
2005/10/26 06:00,    2.1,   -0.9,   -1.6,   -3.4,   -4.9,   -7.2,   -8.5,   -8.6,   -7.4,   -5.8,   -5.5,   -5.0,   -4.7,   -6.0,   -5.7,   -5.5,   -5.7,   -5.9,   -5.2,   -4.6,   -5.0,   -3.8,   -4.2,   -4.3,   -3.9,   -3.3,   -2.8,   -1.5,   -1.4,   -1.9
2005/10/26 06:10,  999.0,   -0.6,   -2.2,   -3.4,   -5.2,   -7.5,   -7.1,   -8.4,   -7.8,  999.0,   -5.2,   -3.9,   -4.9,  999.0,  999.0,  999.0,  999.0,  999.0,  999.0,  999.0,  999.0,  999.0,  999.0,  999.0,  999.0,  999.0,  999.0,  999.0,  999.0,  999.0
2005/10/26 06:20,  999.0,  999.0,  999.0,  999.0,  999.0,  999.0,   -6.1,  999.0,  999.0,  999.0,  999.0,  999.0,  999.0,  999.0,  999.0,  999.0,  999.0,  999.0,  999.0,  999.0,  999.0,  999.0,  999.0,  999.0,  999.0,  999.0,  999.0,  999.0,  999.0,  999.0
2005/10/26 06:30,  999.0,  999.0,  999.0,  999.0,  999.0,  999.0,  999.0,  999.0,  999.0,  999.0,  999.0,  999.0,  999.0,  999.0,  999.0,  999.0,  999.0,  999.0,  999.0,  999.0,  999.0,  999.0,  999.0,  999.0,  999.0,  999.0,  999.0,  999.0,  999.0,  999.0
2005/10/26 06:40,  999.0,  999.0,  999.0,   -3.1,   -5.4,   -4.9,   -7.4,   -7.5,   -7.8,   -7.3,   -6.4,   -5.6,   -5.6,   -5.9,  999.0,  999.0,  999.0,  999.0,  999.0,  999.0,  999.0,  999.0,  999.0,  999.0,  999.0,  999.0,  999.0,  999.0,  999.0,   -3.5
2005/10/26 06:50,   -0.5,   -1.0,   -2.0,   -3.1,   -4.7,   -6.3,   -7.2,   -7.2,   -7.0,   -5.6,   -5.2,   -2.9,   -2.2,   -3.7,   -2.1,   -3.2,   -3.6,   -4.1,   -3.4,   -3.9,   -4.5,   -5.2,   -4.7,   -4.1,   -5.3,   -5.9,   -4.0,   -2.9,   -3.6,   -1.9
2005/10/26 07:00,    0.0,   -0.5,   -2.5,   -3.1,   -4.8,   -6.5,   -6.7,   -7.2,   -5.9,   -5.2,   -4.3,   -3.3,   -2.8,   -1.7,   -1.8,   -2.9,   -3.4,   -4.0,   -4.3,   -5.0,   -5.7,   -5.8,   -6.1,  999.0,   -6.3,   -5.5,   -4.1,   -3.5,   -2.2,   -1.6
2005/10/26 07:10,  999.0,   -0.2,   -2.5,   -3.2,   -4.9,   -6.2,   -6.7,   -7.0,   -6.0,   -5.2,   -4.2,   -2.3,   -2.4,   -2.0,   -2.7,   -4.3,   -3.7,   -3.7,   -3.3,   -3.4,   -4.5,   -5.6,   -6.2,   -5.1,   -5.8,   -5.9,   -3.6,   -2.8,   -1.5,    0.8
2005/10/26 07:20,   -0.0,    0.2,   -2.5,   -3.7,   -4.7,   -6.1,   -6.0,   -6.5,   -5.2,   -5.2,   -4.5,   -3.4,   -2.5,   -1.9,   -3.3,   -4.1,   -4.6,   -5.0,   -5.1,   -4.6,   -4.0,   -5.4,  999.0,   -2.9,   -3.4,   -3.5,   -3.7,   -1.0,    1.3,    2.5
2005/10/26 07:30,   -3.1,    0.0,   -2.1,   -4.0,   -4.4,   -6.1,   -6.1,   -7.5,   -5.7,   -4.9,  999.0,  999.0,  999.0,  999.0,  999.0,  999.0,   -4.9,  999.0,  999.0,  999.0,  999.0,  999.0,  999.0,   -2.7,   -3.0,  999.0,  999.0,  999.0,  999.0,    0.7
2005/10/26 07:40,   -1.8,   -2.4,   -3.1,   -5.1,  999.0,  999.0,  999.0,  999.0,  999.0,  999.0,   -2.9,  999.0,  999.0,  999.0,  999.0,  999.0,  999.0,  999.0,  999.0,  999.0,  999.0,  999.0,  999.0,  999.0,  999.0,  999.0,  999.0,  999.0,  999.0,  999.0
2005/10/26 07:50,   -2.6,   -1.8,   -3.6,   -2.1,   -2.8,   -5.5,   -6.0,   -5.7,   -4.6,   -6.0,   -2.1,   -1.8,   -2.2,   -3.4,   -2.9,   -3.4,   -3.6,   -5.6,   -7.5,   -6.4,   -5.3,   -5.3,   -6.1,   -4.1,  999.0,   -5.2,  999.0,  999.0,  999.0,  999.0
2005/10/26 08:00,  999.0,  999.0,   -4.0,   -2.0,   -2.9,   -1.8,   -2.9,  999.0,  999.0,   -3.5,  999.0,   -2.5,   -3.5,   -3.6,   -3.5,   -3.2,   -5.3,   -6.6,   -7.9,   -6.4,   -4.6,   -5.4,   -5.2,  999.0,  999.0,   -3.8,  999.0,  999.0,  999.0,  999.0
2005/10/26 08:10,   -3.2,  999.0,  999.0,  999.0,  999.0,  999.0,  999.0,  999.0,  999.0,  999.0,  999.0,  999.0,  999.0,  999.0,  999.0,  999.0,  999.0,  999.0,  999.0,  999.0,  999.0,  999.0,  999.0,  999.0,   -3.5,  999.0,  999.0,  999.0,  999.0,  999.0
2005/10/26 08:20,  999.0,  999.0,  999.0,   -6.8,  999.0,  999.0,  999.0,  999.0,  999.0,  999.0,  999.0,  999.0,  999.0,  999.0,  999.0,  999.0,  999.0,  999.0,  999.0,  999.0,  999.0,  999.0,  999.0,  999.0,  999.0,  999.0,  999.0,  999.0,  999.0,  999.0
2005/10/26 08:30,  999.0,    1.9,  999.0,   -6.3,  999.0,  999.0,  999.0,  999.0,  999.0,   -2.9,  999.0,  999.0,  999.0,  999.0,  999.0,  999.0,  999.0,  999.0,  999.0,  999.0,  999.0,  999.0,  999.0,  999.0,  999.0,  999.0,  999.0,  999.0,  999.0,  999.0
2005/10/26 08:40,    1.5,   -0.5,   -4.4,   -4.2,  999.0,   -7.3,  999.0,  999.0,   -5.8,  999.0,  999.0,  999.0,  999.0,  999.0,  999.0,  999.0,  999.0,  999.0,  999.0,  999.0,  999.0,  999.0,  999.0,  999.0,  999.0,  999.0,  999.0,  999.0,  999.0,  999.0
2005/10/26 08:50,   -1.3,   -1.4,  999.0,   -4.9,   -6.0,   -8.7,  999.0,   -5.5,  999.0,  999.0,  999.0,  999.0,  999.0,  999.0,  999.0,  999.0,  999.0,  999.0,  999.0,  999.0,  999.0,  999.0,  999.0,  999.0,  999.0,  999.0,  999.0,  999.0,  999.0,  999.0
2005/10/26 09:00,   -0.2,  999.0,   -4.7,   -3.9,   -2.9,   -8.3,  999.0,  999.0,  999.0,  999.0,  999.0,  999.0,   -4.2,   -3.8,  999.0,   -3.5,   -4.3,   -5.4,   -6.6,   -6.8,   -7.6,  999.0,  999.0,   -2.8,  999.0,  999.0,  999.0,  999.0,  999.0,  999.0
2005/10/26 09:10,   -1.2,   -8.0,   -8.6,   -8.8,  999.0,   -5.9,  999.0,   -5.9,   -4.9,   -4.5,  999.0,   -3.9,  999.0,   -4.0,  999.0,  999.0,   -4.0,  999.0,  999.0,  999.0,  999.0,  999.0,   -3.4,   -1.6,  999.0,  999.0,   -3.0,  999.0,  999.0,  999.0
2005/10/26 09:20,   -1.2,   -0.5,   -2.0,   -3.0,   -6.7,  999.0,   -5.7,  999.0,  999.0,  999.0,  999.0,  999.0,  999.0,  999.0,  999.0,  999.0,  999.0,  999.0,  999.0,  999.0,  999.0,  999.0,  999.0,  999.0,  999.0,  999.0,  999.0,  999.0,  999.0,  999.0
2005/10/26 09:30,   -1.5,   -1.7,   -4.3,   -4.2,  999.0,  999.0,   -6.1,  999.0,  999.0,  999.0,  999.0,  999.0,  999.0,  999.0,  999.0,  999.0,  999.0,  999.0,  999.0,  999.0,  999.0,  999.0,  999.0,  999.0,  999.0,  999.0,  999.0,  999.0,  999.0,  999.0
2005/10/26 09:40,   -1.1,   -2.0,   -0.2,   -4.6,  999.0,  999.0,   -7.3,   -5.8,  999.0,  999.0,  999.0,  999.0,  999.0,  999.0,  999.0,  999.0,  999.0,  999.0,  999.0,  999.0,  999.0,  999.0,  999.0,  999.0,  999.0,  999.0,  999.0,  999.0,  999.0,  999.0
2005/10/26 09:50,    0.6,   -0.8,  999.0,   -4.0,   -6.0,   -4.7,   -6.4,  999.0,  999.0,  999.0,  999.0,  999.0,  999.0,  999.0,  999.0,  999.0,  999.0,  999.0,  999.0,  999.0,  999.0,  999.0,  999.0,  999.0,  999.0,  999.0,  999.0,  999.0,  999.0,  999.0
2005/10/26 10:00,   -1.0,   -2.4,  999.0,   -3.3,   -5.0,  999.0,   -6.1,  999.0,  999.0,  999.0,  999.0,  999.0,  999.0,  999.0,  999.0,  999.0,  999.0,  999.0,  999.0,  999.0,  999.0,  999.0,  999.0,  999.0,  999.0,  999.0,  999.0,  999.0,  999.0,  999.0
2005/10/26 10:10,   -1.5,   -3.3,   -4.9,   -4.0,   -5.8,  999.0,   -5.1,   -6.3,  999.0,  999.0,  999.0,  999.0,  999.0,  999.0,  999.0,  999.0,  999.0,  999.0,  999.0,  999.0,  999.0,  999.0,  999.0,  999.0,  999.0,  999.0,  999.0,  999.0,  999.0,  999.0
2005/10/26 10:20,   -1.3,   -2.2,   -2.5,   -4.2,   -4.6,   -3.5,   -5.6,   -6.4,  999.0,  999.0,  999.0,  999.0,  999.0,  999.0,  999.0,  999.0,  999.0,  999.0,  999.0,  999.0,  999.0,  999.0,  999.0,  999.0,  999.0,  999.0,  999.0,  999.0,  999.0,  999.0
2005/10/26 10:30,  999.0,   -1.9,  999.0,   -2.9,   -4.1,   -3.4,   -7.3,   -5.6,   -7.4,  999.0,  999.0,  999.0,  999.0,  999.0,  999.0,  999.0,  999.0,  999.0,  999.0,  999.0,  999.0,  999.0,  999.0,  999.0,  999.0,  999.0,  999.0,  999.0,  999.0,  999.0
2005/10/26 10:40,   -2.0,   -0.7,   -4.1,   -5.6,  999.0,  999.0,   -4.5,   -4.8,   -6.2,   -5.5,   -5.6,  999.0,  999.0,  999.0,  999.0,  999.0,  999.0,  999.0,  999.0,  999.0,  999.0,  999.0,  999.0,  999.0,  999.0,  999.0,  999.0,  999.0,  999.0,  999.0
2005/10/26 10:50,  999.0,    1.6,   -1.3,   -2.7,  999.0,   -3.2,   -4.8,   -5.5,   -5.4,   -5.7,   -5.1,  999.0,  999.0,  999.0,  999.0,  999.0,  999.0,  999.0,  999.0,  999.0,  999.0,  999.0,  999.0,  999.0,  999.0,  999.0,  999.0,  999.0,  999.0,  999.0
2005/10/26 11:00,   -0.9,   -0.3,   -0.7,   -0.9,   -3.5,  999.0,   -4.5,   -5.1,   -5.7,   -5.8,   -4.9,  999.0,  999.0,  999.0,  999.0,  999.0,  999.0,  999.0,  999.0,  999.0,  999.0,  999.0,  999.0,  999.0,  999.0,  999.0,  999.0,  999.0,  999.0,  999.0
2005/10/26 11:10,   -0.7,   -1.5,   -2.4,  999.0,   -2.6,  999.0,   -4.1,   -4.7,  999.0,   -5.1,   -4.0,  999.0,  999.0,  999.0,  999.0,  999.0,  999.0,  999.0,  999.0,  999.0,  999.0,  999.0,  999.0,  999.0,  999.0,  999.0,  999.0,  999.0,  999.0,  999.0
2005/10/26 11:20,   -0.0,   -0.5,  999.0,  999.0,  999.0,  999.0,   -3.4,   -3.7,   -4.8,   -4.7,   -6.4,  999.0,  999.0,  999.0,  999.0,  999.0,  999.0,  999.0,  999.0,  999.0,  999.0,  999.0,  999.0,  999.0,  999.0,  999.0,  999.0,  999.0,  999.0,  999.0
2005/10/26 11:30,    0.9,   -0.3,   -1.2,   -2.4,  999.0,  999.0,  999.0,   -4.6,   -5.2,  999.0,   -3.7,  999.0,  999.0,  999.0,  999.0,  999.0,  999.0,  999.0,  999.0,  999.0,  999.0,  999.0,  999.0,  999.0,  999.0,  999.0,  999.0,  999.0,  999.0,  999.0
2005/10/26 11:40,    0.6,    0.3,   -1.6,   -0.8,   -1.7,   -3.6,  999.0,   -3.6,   -4.8,   -6.7,   -1.4,  999.0,  999.0,  999.0,  999.0,  999.0,  999.0,  999.0,  999.0,  999.0,  999.0,  999.0,  999.0,  999.0,  999.0,  999.0,  999.0,  999.0,  999.0,  999.0
2005/10/26 11:50,   -1.0,   -0.5,    0.7,   -0.7,   -2.4,   -2.5,  999.0,   -3.4,   -4.7,   -6.6,  999.0,  999.0,  999.0,  999.0,  999.0,  999.0,  999.0,  999.0,  999.0,  999.0,  999.0,  999.0,  999.0,  999.0,  999.0,  999.0,  999.0,  999.0,  999.0,  999.0
2005/10/26 12:00,   -2.2,   -0.4,   -0.3,    0.6,  999.0,   -0.2,   -3.1,  999.0,   -4.8,  999.0,  999.0,  999.0,  999.0,  999.0,  999.0,  999.0,  999.0,  999.0,  999.0,  999.0,  999.0,  999.0,  999.0,  999.0,  999.0,  999.0,  999.0,  999.0,  999.0,  999.0
2005/10/26 12:10,   -0.1,   -3.0,   -0.9,   -1.2,   -2.1,  999.0,  999.0,   -5.6,   -6.1,   -4.5,   -2.6,   -1.9,   -3.7,   -2.3,   -2.3,   -3.1,   -3.7,  999.0,  999.0,  999.0,  999.0,  999.0,  999.0,  999.0,  999.0,  999.0,  999.0,  999.0,  999.0,  999.0
2005/10/26 12:20,   -1.3,    1.0,   -0.1,   -0.1,   -0.0,  999.0,   -3.8,   -6.3,   -5.5,   -3.5,   -2.0,   -1.1,   -0.2,   -1.3,   -2.7,   -4.8,   -7.0,  999.0,  999.0,  999.0,  999.0,  999.0,  999.0,  999.0,  999.0,  999.0,  999.0,  999.0,  999.0,  999.0
2005/10/26 12:30,  999.0,  999.0,  999.0,  999.0,   -1.6,  999.0,   -4.3,   -2.8,   -3.4,   -5.6,   -5.6,   -3.9,   -3.3,   -4.1,   -4.9,  999.0,  999.0,  999.0,  999.0,  999.0,  999.0,  999.0,  999.0,  999.0,  999.0,  999.0,  999.0,  999.0,  999.0,  999.0
2005/10/26 12:40,    2.7,   -2.1,   -2.1,   -1.5,   -0.5,  999.0,  999.0,   -3.9,   -4.9,   -5.3,   -5.9,  999.0,  999.0,  999.0,  999.0,  999.0,  999.0,  999.0,  999.0,  999.0,  999.0,  999.0,  999.0,  999.0,  999.0,  999.0,  999.0,  999.0,  999.0,  999.0
2005/10/26 12:50,   -0.1,    1.0,    0.0,   -1.6,   -1.3,   -3.6,   -4.0,   -3.3,   -4.7,   -4.9,   -4.8,   -4.2,   -4.2,  999.0,  999.0,  999.0,  999.0,  999.0,  999.0,  999.0,  999.0,  999.0,  999.0,  999.0,  999.0,  999.0,  999.0,  999.0,  999.0,  999.0
2005/10/26 13:00,   -0.8,   -0.4,    0.2,    0.1,   -0.2,  999.0,   -3.5,   -3.8,   -3.3,   -3.5,   -2.6,   -2.9,   -1.7,   -4.7,  999.0,  999.0,  999.0,  999.0,  999.0,  999.0,  999.0,  999.0,  999.0,  999.0,  999.0,  999.0,  999.0,  999.0,  999.0,  999.0
2005/10/26 13:10,   -2.3,   -2.1,   -0.7,   -0.5,   -0.6,   -1.6,   -6.3,   -4.3,   -3.7,   -2.6,   -3.8,   -4.9,   -4.6,   -5.7,   -8.1,   -5.0,   -4.2,   -3.5,  999.0,  999.0,  999.0,   -3.3,  999.0,  999.0,  999.0,  999.0,  999.0,  999.0,  999.0,  999.0
2005/10/26 13:20,   -1.0,   -0.3,   -1.2,    1.1,    2.6,    1.5,   -2.2,   -1.9,   -2.7,   -0.7,    1.9,    2.0,    1.7,    2.9,    2.4,   -4.6,   -0.9,   -1.2,   -0.5,   -4.1,   -6.9,   -6.0,  999.0,  999.0,  999.0,  999.0,  999.0,  999.0,  999.0,  999.0
2005/10/26 13:30,   -0.0,   -1.9,   -1.3,   -0.5,   -0.8,   -1.0,   -0.0,    0.0,   -0.4,   -1.2,   -0.3,   -0.2,   -2.0,   -2.4,   -3.1,   -4.1,   -4.1,   -3.2,   -1.4,    0.0,    1.7,    1.5,    0.8,    2.1,  999.0,  999.0,  999.0,  999.0,  999.0,  999.0
2005/10/26 13:40,   -1.1,   -1.4,    0.2,   -3.4,   -2.5,    0.4,    2.1,    1.9,    1.1,   -1.3,   -2.2,   -2.5,   -2.8,  999.0,  999.0,    5.7,   -2.2,   -0.4,   -3.0,   -3.9,   -3.4,  999.0,    4.3,  999.0,  999.0,  999.0,  999.0,  999.0,  999.0,  999.0
2005/10/26 13:50,    1.0,   -0.9,  999.0,  999.0,  999.0,    1.1,   -2.4,   -3.0,   -3.9,  999.0,   -5.5,  999.0,   -2.4,   -5.3,   -3.0,   -3.7,  999.0,   -2.7,  999.0,  999.0,  999.0,  999.0,  999.0,  999.0,  999.0,  999.0,  999.0,  999.0,  999.0,  999.0
2005/10/26 14:00,   -1.3,   -1.1,  999.0,  999.0,  999.0,   -0.7,   -2.2,   -1.8,  999.0,  999.0,  999.0,  999.0,   -1.4,   -2.0,   -3.8,   -4.0,   -4.5,   -4.5,  999.0,  999.0,  999.0,  999.0,  999.0,  999.0,  999.0,  999.0,  999.0,  999.0,  999.0,  999.0
2005/10/26 14:10,   -3.1,   -1.6,   -1.6,   -1.2,   -1.8,   -3.1,   -6.8,   -7.4,  -11.8,   -7.8,   -5.5,   -5.4,   -6.7,   -7.1,   -7.3,   -6.5,   -4.2,   -6.7,   -6.0,   -7.4,   -9.3,   -5.7,   -7.6,   -8.9,  999.0,  999.0,  999.0,  999.0,  999.0,  999.0
2005/10/26 14:20,   -2.2,   -1.3,   -1.6,   -1.9,   -2.9,   -2.1,   -2.7,   -3.0,   -4.1,   -3.4,   -2.6,   -2.3,   -2.4,   -2.3,   -2.9,   -4.4,   -3.7,   -4.6,   -5.4,   -5.9,   -5.3,   -6.2,   -4.2,   -6.8,   -6.0,   -6.2,   -9.4,  999.0,  999.0,  999.0
2005/10/26 14:30,   -3.2,   -3.4,   -4.8,   -5.5,   -5.6,   -4.2,   -3.1,   -3.2,   -4.2,   -4.7,   -3.6,   -3.0,   -3.0,   -2.9,   -2.6,   -2.7,   -2.8,   -4.3,   -3.9,   -3.3,   -2.9,   -3.8,   -3.9,  999.0,  999.0,  999.0,  999.0,  999.0,  999.0,  999.0
2005/10/26 14:40,   -5.0,   -5.6,   -4.4,   -1.6,   -1.7,   -1.6,   -1.1,   -3.0,   -3.4,   -4.3,   -4.7,   -2.6,  999.0,   -3.9,   -2.2,   -2.1,   -3.1,   -3.1,   -4.3,   -4.9,   -6.2,   -4.6,   -3.3,   -1.0,    1.4,    1.0,    0.1,    0.6,    0.1,   -1.8
2005/10/26 14:50,   -3.6,   -3.9,   -4.5,   -4.3,   -3.5,   -3.7,   -4.1,   -3.8,   -3.5,   -3.2,   -3.0,   -3.1,   -4.9,   -6.3,   -5.7,   -5.8,   -7.1,   -9.6,  -11.0,  -11.6,  -12.2,  -11.0,   -9.5,   -6.9,   -3.1,   -2.6,   -2.6,   -1.0,   -0.4,   -1.7
2005/10/26 15:00,   -2.6,   -2.6,   -4.2,   -5.0,   -5.2,   -5.5,   -5.2,   -4.5,   -4.0,   -3.7,   -4.0,   -5.1,   -5.3,   -5.7,   -5.6,   -5.8,   -5.8,   -5.7,   -5.8,   -6.3,   -6.6,   -5.6,   -5.4,   -5.5,   -4.5,   -3.4,   -1.8,    0.3,  999.0,  999.0
2005/10/26 15:10,   -1.3,   -2.2,   -3.7,   -5.6,   -6.8,   -7.2,   -7.0,   -6.7,   -6.1,   -6.1,   -6.1,   -6.5,   -7.1,   -6.8,   -6.3,   -4.9,   -2.6,   -1.4,   -1.7,   -2.3,   -3.0,   -3.1,   -3.9,   -4.1,   -3.4,   -3.9,   -3.4,  999.0,  999.0,  999.0
2005/10/26 15:20,   -1.1,   -1.7,   -4.5,   -6.5,   -6.6,   -7.5,   -7.2,   -6.4,   -6.5,   -6.3,   -6.1,   -5.7,   -6.6,   -6.7,   -5.9,   -3.9,   -2.8,   -3.4,   -3.7,   -3.2,   -3.3,   -3.3,   -3.4,   -2.0,   -1.4,   -2.6,   -2.4,  999.0,  999.0,  999.0
2005/10/26 15:30,   -1.0,   -2.6,   -5.1,   -6.9,   -8.0,   -9.1,   -9.1,   -7.9,   -7.1,   -7.1,   -7.8,   -8.0,   -9.0,   -9.1,   -9.5,   -7.1,   -6.4,   -5.2,   -5.3,   -6.1,   -6.2,   -5.6,   -4.5,   -3.1,   -2.3,   -1.5,  999.0,  999.0,  999.0,  999.0
2005/10/26 15:40,   -0.9,   -1.5,   -4.0,   -6.6,   -8.4,   -9.4,   -9.8,   -8.7,   -7.2,   -6.6,   -6.1,   -6.2,   -6.7,   -6.9,   -7.4,   -8.2,   -6.0,   -4.9,   -4.4,   -1.9,   -3.7,   -2.2,   -1.6,    0.4,    0.8,    0.1,   -0.2,    3.2,    3.5,  999.0
2005/10/26 15:50,    0.1,   -1.6,   -4.7,   -7.4,   -7.8,   -8.8,  -10.4,  -11.0,   -9.7,   -8.8,   -8.5,   -8.2,   -7.3,   -7.4,   -8.0,   -8.2,   -7.7,  -10.2,   -5.6,   -5.2,   -6.5,   -2.9,  999.0,   -3.6,   -2.0,   -2.4,   -1.1,    1.0,    1.5,    1.2
2005/10/26 16:00,    0.8,   -1.2,   -3.6,   -5.0,   -4.4,   -5.7,   -7.7,   -9.2,   -8.1,   -6.8,   -6.4,   -6.4,   -6.4,   -5.6,   -5.7,   -5.2,   -3.9,   -2.9,   -2.3,   -1.6,   -0.4,    0.2,   -0.2,   -2.1,   -2.6,   -3.6,   -3.0,   -1.4,   -0.2,  999.0
2005/10/26 16:10,   -1.5,   -2.8,   -2.8,   -2.9,   -4.1,   -6.0,   -7.6,   -9.8,  -10.1,  -10.5,   -9.0,   -8.2,   -7.8,   -7.0,   -6.5,   -7.0,   -7.9,   -6.2,   -4.4,   -3.9,   -4.2,   -5.1,   -3.3,   -3.4,   -2.9,  999.0,  999.0,  999.0,  999.0,  999.0
2005/10/26 16:20,   -0.8,   -1.7,   -1.4,   -3.0,   -4.0,   -5.0,   -5.8,   -6.7,   -7.7,   -8.1,   -7.5,   -7.2,   -5.8,   -7.2,   -7.0,   -7.4,   -7.7,   -8.0,  999.0,  999.0,  999.0,  999.0,  999.0,  999.0,   -1.6,   -2.2,   -1.1,   -0.4,    0.3,    0.9
2005/10/26 16:30,    0.3,   -0.7,   -0.8,   -2.9,   -4.3,   -4.7,   -5.8,   -8.1,   -7.4,   -6.5,  999.0,  999.0,  999.0,  999.0,  999.0,  999.0,   11.9,  999.0,  999.0,   -4.4,   -2.9,   -2.6,   -1.6,  999.0,   -1.5,   -2.5,   -1.8,   -1.0,   -0.6,    0.1
2005/10/26 16:40,    0.6,    2.5,    1.7,   -3.1,   -3.7,   -4.6,   -3.5,   -6.5,   -6.5,   -6.3,   -5.8,   -6.2,   -6.1,   -6.2,   -5.9,   -6.0,   -5.9,   -5.6,   -5.3,   -5.7,   -4.5,   -4.7,   -3.8,  999.0,   -3.6,   -3.7,   -3.2,   -2.0,   -1.9,   -1.1
2005/10/26 16:50,    0.7,   -0.5,   -2.6,   -4.1,   -4.1,   -5.2,   -6.5,   -7.1,   -7.4,   -7.2,   -6.9,   -6.6,   -6.8,   -6.4,   -6.5,   -6.4,   -6.7,   -5.3,   -4.6,   -4.1,   -3.6,   -4.2,   -3.5,   -3.8,   -3.4,   -3.3,   -4.1,   -3.4,   -1.3,   -0.5
2005/10/26 17:00,    0.3,   -1.2,   -3.0,   -4.0,   -3.4,   -4.2,   -5.6,   -6.9,   -7.7,   -8.5,   -7.9,   -7.8,   -7.7,   -7.7,   -6.1,   -5.3,   -4.8,   -5.0,   -4.0,   -4.0,   -4.1,   -4.4,   -3.0,   -2.3,   -2.8,   -3.5,   -3.7,   -2.9,   -1.5,   -0.9
2005/10/26 17:10,    1.0,  999.0,   -1.4,  999.0,  999.0,  999.0,  999.0,  999.0,  999.0,  999.0,  999.0,  999.0,  999.0,  999.0,  999.0,  999.0,  999.0,  999.0,  999.0,  999.0,  999.0,  999.0,  999.0,  999.0,  999.0,  999.0,  999.0,  999.0,   -2.8,  999.0
2005/10/26 17:20,   -0.5,   -2.7,   -3.1,  999.0,   -2.2,   -6.0,   -4.2,   -8.7,  999.0,   -7.1,  999.0,  999.0,  999.0,  999.0,   -4.8,  999.0,  999.0,  999.0,  999.0,  999.0,  999.0,  999.0,  999.0,  999.0,  999.0,  999.0,  999.0,  999.0,  999.0,   -3.6
2005/10/26 17:30,    2.1,   -3.5,  999.0,  999.0,  999.0,  999.0,   -8.2,  999.0,  999.0,  999.0,  999.0,  999.0,  999.0,  999.0,  999.0,  999.0,  999.0,  999.0,  999.0,  999.0,  999.0,  999.0,  999.0,  999.0,  999.0,  999.0,  999.0,  999.0,  999.0,  999.0
2005/10/26 17:40,   -0.1,   -0.9,   -2.5,   -3.6,   -5.0,   -6.3,   -7.5,   -6.9,   -6.9,   -8.7,   -7.7,   -7.0,   -6.2,   -5.5,   -5.1,   -4.4,   -4.6,   -4.2,   -4.0,   -2.5,   -2.3,   -3.0,   -4.2,   -4.7,   -4.7,  999.0,  999.0,  999.0,  999.0,  999.0
2005/10/26 17:50,  999.0,  999.0,  999.0,  999.0,   -5.0,   -7.3,  999.0,   -5.1,   -5.5,   -8.1,  999.0,  999.0,  999.0,  999.0,  999.0,  999.0,  999.0,  999.0,  999.0,  999.0,    2.7,  999.0,  999.0,  999.0,  999.0,  999.0,  999.0,  999.0,  999.0,  999.0
2005/10/26 18:00,    0.8,   -1.0,  999.0,   -3.5,   -4.3,   -5.3,   -6.3,  999.0,  999.0,  999.0,   -7.4,  999.0,  999.0,  999.0,  999.0,  999.0,   -4.4,  999.0,  999.0,  999.0,  999.0,  999.0,  999.0,  999.0,  999.0,  999.0,  999.0,  999.0,  999.0,  999.0
2005/10/26 18:10,   -1.7,   -1.0,  999.0,   -2.4,   -4.5,   -5.6,  999.0,   -6.1,  999.0,  999.0,  999.0,  999.0,  999.0,  999.0,  999.0,  999.0,  999.0,  999.0,  999.0,  999.0,  999.0,  999.0,  999.0,  999.0,  999.0,  999.0,  999.0,  999.0,  999.0,  999.0
2005/10/26 18:20,   -0.9,   -1.6,   -3.8,   -3.3,   -4.0,  999.0,   -6.6,   -7.4,   -9.3,  -11.4,  999.0,  999.0,  999.0,  999.0,  999.0,  999.0,  999.0,  999.0,   -3.2,   -2.2,   -2.8,   -1.9,   -2.4,   -2.5,   -2.6,   -2.6,   -2.8,   -1.9,   -2.3,   -1.6
2005/10/26 18:30,  999.0,  999.0,    1.0,    1.2,  999.0,  999.0,  999.0,   -2.9,   -1.5,   -5.6,  999.0,    0.8,  999.0,   -5.3,   -4.1,   -4.3,   -4.3,   -4.5,   -3.4,   -2.1,   -1.3,   -1.6,   -1.6,   -2.3,   -2.9,   -2.5,   -2.5,   -2.9,   -2.5,   -2.6
2005/10/26 18:40,  999.0,   -0.3,   -0.2,   -2.0,  999.0,  999.0,  999.0,   -1.8,  999.0,   -4.2,  999.0,  999.0,   -0.1,  999.0,  999.0,   -2.9,   -3.2,   -3.8,   -3.5,   -2.0,   -2.0,   -2.3,   -3.0,   -3.2,   -3.4,   -2.8,   -2.4,   -2.6,   -1.7,   -1.0
2005/10/26 18:50,  999.0,    2.2,    0.7,   -3.6,   -2.4,  999.0,  999.0,   -5.8,   -4.6,  999.0,  999.0,   -6.3,  999.0,  999.0,   -2.2,   -6.1,   -5.0,   -5.1,   -4.5,   -3.6,   -2.3,   -2.9,   -1.9,   -3.2,   -3.6,   -3.7,   -4.0,   -3.6,   -2.5,   -1.2
2005/10/26 19:00,  999.0,  999.0,   -0.9,   -1.4,  999.0,  999.0,  999.0,   -7.0,    3.1,  999.0,  999.0,  999.0,   -6.1,   -6.4,   -6.6,   -6.0,   -5.4,   -4.7,   -4.3,   -4.9,   -3.5,   -3.5,   -3.4,   -3.0,   -2.2,   -2.3,   -2.3,   -2.5,   -2.1,   -1.6
2005/10/26 19:10,   -0.6,   -1.3,   -2.6,   -4.4,   -5.4,  999.0,  999.0,   -6.8,   -6.3,   -7.1,   -7.4,   -7.6,   -7.1,   -6.5,   -6.4,   -6.0,   -5.1,   -3.9,   -3.6,   -4.0,   -3.2,   -3.0,   -3.2,   -2.9,  999.0,   -3.3,   -2.5,   -2.6,   -2.2,  999.0
2005/10/26 19:20,   -0.2,    1.9,    2.0,    7.7,  999.0,  999.0,  999.0,  999.0,  999.0,   -7.5,   -8.1,   -6.7,   -6.4,   -6.6,   -6.3,   -6.1,   -4.6,   -3.3,   -3.5,   -3.5,   -2.7,   -1.7,   -2.2,   -2.1,   -2.5,   -3.5,   -3.3,   -2.3,   -1.7,   -0.4
2005/10/26 19:30,   -0.7,   -0.5,   -2.4,   -3.1,   -3.8,   -5.3,  999.0,   -6.8,   -7.1,   -7.4,   -9.5,   -7.6,   -6.9,   -6.5,   -5.8,   -4.4,   -3.1,   -0.9,    0.2,    0.3,    0.4,    1.0,    0.2,  999.0,  999.0,   -2.1,   -2.6,   -1.8,   -1.6,   -1.6
2005/10/26 19:40,   -0.2,   -0.9,   -3.2,  999.0,   -4.4,   -4.6,   -4.1,   -3.6,   -3.5,   -2.2,   -4.5,   -6.1,   -5.8,   -5.9,   -5.1,   -3.5,   -3.5,   -2.8,   -1.6,   -2.2,   -2.4,   -1.5,   -1.7,  999.0,   -1.7,   -1.7,   -2.0,   -2.2,   -2.0,   -2.0
2005/10/26 19:50,   -0.3,   -0.7,   -1.8,   -2.1,   -3.4,   -2.8,   -3.8,   -4.5,   -5.4,   -6.7,   -7.3,   -7.2,   -7.1,   -6.7,   -6.6,   -4.5,   -2.8,   -1.6,   -1.5,   -1.1,   -0.4,    0.2,   -0.1,   -0.9,   -1.2,   -1.5,   -1.6,   -1.4,   -1.5,   -1.6
2005/10/26 20:00,   -0.3,   -1.3,   -2.4,   -3.1,   -4.2,   -3.7,   -4.7,   -5.6,   -6.9,   -7.6,   -8.5,   -7.2,   -6.5,   -6.1,   -5.4,   -4.2,   -2.3,   -1.8,   -2.3,   -2.3,   -2.0,   -1.2,   -2.0,  999.0,   -0.9,   -1.6,   -1.3,   -1.3,   -1.0,   -0.1
2005/10/26 20:10,   -0.2,   -0.4,   -1.6,   -2.7,   -3.9,   -5.0,   -4.7,   -6.2,   -8.2,   -6.9,   -5.2,   -4.3,   -3.8,   -4.3,   -3.6,   -3.2,   -1.4,   -1.8,   -2.5,   -2.4,   -1.6,   -0.8,   -1.7,  999.0,  999.0,   -4.2,   -3.6,  999.0,  999.0,  999.0
2005/10/26 20:20,   -0.4,   -0.8,   -1.9,   -2.5,   -3.9,   -5.5,   -6.4,   -7.4,   -8.3,   -9.7,   -8.7,   -8.2,   -7.7,   -7.0,   -5.6,   -5.7,   -4.9,   -5.4,   -5.7,   -5.2,   -4.3,   -5.0,   -4.6,   -2.7,   -3.9,   -5.8,   -4.2,   -4.2,   -3.9,   -3.2
2005/10/26 20:30,  999.0,  999.0,   -0.6,   -1.6,  999.0,   -3.9,   -7.3,   -5.5,   -5.9,   -7.6,   -7.4,   -8.2,   -7.8,   -6.4,   -3.9,   -3.7,   -3.6,   -3.0,   -4.0,   -4.6,   -2.9,   -4.3,   -4.4,   -3.2,   -3.3,   -3.9,   -4.6,   -4.3,   -4.5,   -0.8
2005/10/26 20:40,  999.0,   -4.8,   -1.7,   -0.6,   -0.3,   -7.7,   -7.9,  -10.0,   -9.0,   -6.4,   -6.8,   -4.7,   -6.5,  999.0,   -1.6,   -0.0,   -0.1,   -0.0,   -0.3,   -0.0,    0.0,    0.7,   -1.2,   -2.1,   -3.4,   -3.8,   -4.5,   -5.2,   -3.7,   -1.7
2005/10/26 20:50,   -0.2,  999.0,   -2.1,   -2.7,   -1.7,  999.0,   -8.0,  999.0,  -11.2,   -8.6,   -7.1,   -6.1,   -6.3,   -5.5,   -5.6,   -4.8,   -4.0,   -3.3,   -3.3,   -3.0,   -2.5,   -2.0,   -1.7,   -2.4,   -2.9,   -4.3,   -5.2,   -6.0,   -3.7,   -2.1
2005/10/26 21:00,   -2.0,   -1.2,   -1.6,   -2.7,   -3.4,   -4.4,   -4.0,   -6.6,   -9.1,   -8.3,   -8.1,   -6.6,   -6.9,   -6.3,   -6.5,   -5.1,   -4.8,   -4.5,   -2.9,   -2.9,   -2.7,   -3.0,   -3.0,   -3.0,   -3.6,   -5.0,   -5.2,   -4.7,   -3.4,   -1.8
2005/10/26 21:10,   -0.6,   -1.6,   -2.8,   -2.7,   -4.0,   -4.9,   -5.5,   -6.1,   -6.4,   -7.5,   -7.1,   -5.8,   -5.9,   -6.2,   -5.4,   -5.2,   -5.1,   -4.9,   -4.2,   -4.5,   -4.1,   -4.1,   -3.6,  999.0,   -4.2,   -4.5,   -5.1,   -4.4,   -3.0,   -2.3
2005/10/26 21:20,   -0.7,   -2.3,   -3.5,   -3.1,   -3.4,   -4.2,   -5.3,   -5.2,   -5.8,   -5.8,   -5.8,   -5.4,   -4.5,   -4.5,   -4.5,   -4.3,   -4.6,   -4.3,   -3.6,   -3.4,   -3.5,   -3.7,   -3.6,  999.0,   -3.4,   -3.2,   -2.9,   -2.6,   -1.8,   -1.7
2005/10/26 21:30,   -0.0,   -1.2,   -2.3,   -2.1,   -2.3,   -3.4,   -4.3,   -5.0,   -5.7,   -6.2,   -6.4,   -6.4,   -5.4,   -4.9,   -4.5,   -3.9,   -4.0,   -3.7,   -3.0,   -3.9,   -3.1,   -2.5,   -3.3,  999.0,   -2.3,   -2.5,   -2.4,   -2.3,   -2.1,   -2.4
2005/10/26 21:40,   -0.9,   -2.3,   -3.1,   -3.9,   -3.3,   -3.8,   -5.6,   -6.8,   -6.9,   -6.1,   -7.0,   -6.5,   -5.6,   -4.8,   -4.5,   -4.2,   -3.7,   -3.6,   -3.9,   -3.7,   -3.3,   -3.3,   -2.2,  999.0,   -3.0,   -2.6,   -1.8,   -1.8,   -1.8,   -2.3
2005/10/26 21:50,    0.1,   -1.7,   -3.2,   -4.0,   -4.4,   -4.5,   -6.0,   -6.5,   -6.6,   -5.9,   -6.4,   -6.1,   -5.8,   -4.7,   -4.6,   -4.2,   -3.3,   -2.8,   -2.8,   -3.1,   -3.1,   -2.6,   -2.4,   -3.4,   -3.8,   -2.8,   -2.1,   -1.5,   -1.0,   -1.2
2005/10/26 22:00,    0.5,   -1.3,   -0.9,  999.0,  999.0,   -2.2,   -4.6,   -6.4,   -6.2,   -5.7,   -6.0,   -5.6,   -4.5,   -5.2,   -5.1,   -4.3,   -3.2,   -2.3,   -3.0,   -3.5,   -3.7,   -2.8,   -2.8,   -3.4,   -3.3,   -2.2,   -2.5,   -2.0,   -1.1,   -1.8
2005/10/26 22:10,  999.0,   -2.7,   -4.1,   -4.0,   -3.3,  999.0,   -4.9,   -6.1,  999.0,   -4.5,   -4.6,   -4.6,   -3.1,   -3.0,   -2.9,   -2.4,   -1.3,   -1.0,   -1.5,   -2.0,   -2.6,   -3.0,   -2.4,   -2.8,   -3.4,   -3.0,   -2.8,   -2.0,   -1.8,   -1.6
2005/10/26 22:20,    0.2,  999.0,  999.0,   -4.5,   -7.6,  999.0,   -6.7,  999.0,   -5.3,   -4.5,   -8.6,  999.0,   -4.6,   -4.1,   -4.4,   -3.6,   -2.4,   -3.0,   -2.9,   -3.8,   -3.9,   -4.2,   -4.2,   -4.2,   -4.0,   -2.8,   -1.6,   -1.1,   -1.2,   -1.1
2005/10/26 22:30,   -3.2,  -10.0,  999.0,   -5.7,  999.0,   -5.5,  -11.4,   -8.2,   -5.1,    1.2,   -2.2,   -5.0,   -3.2,   -3.4,   -3.6,   -3.8,   -3.2,   -2.0,   -3.1,   -2.8,   -3.3,   -3.2,   -2.9,   -3.5,   -3.3,   -2.2,   -1.5,   -1.4,   -1.3,   -1.4
2005/10/26 22:40,   -0.6,   -1.2,   -2.9,   -2.7,   -3.6,   -4.9,   -5.8,  999.0,  999.0,  999.0,   -4.1,   -4.7,   -4.4,   -3.5,   -4.0,   -4.4,   -3.1,   -2.4,   -2.4,   -3.1,   -2.7,   -1.9,   -2.2,   -2.7,   -2.9,   -2.0,   -0.9,   -0.6,   -0.6,   -1.0
2005/10/26 22:50,   -1.1,   -3.2,   -6.1,   -6.4,   -6.0,   -4.5,   -8.3,  999.0,   -5.9,   -8.5,   -5.5,   -6.0,   -5.2,   -5.2,   -5.3,   -5.4,   -5.2,   -3.9,   -3.6,   -5.1,   -4.6,   -3.1,   -2.6,   -2.7,   -3.0,   -2.2,   -0.7,   -0.5,   -0.6,   -1.1
2005/10/26 23:00,   -6.3,   -1.7,  999.0,  999.0,  -10.0,   -2.8,   -6.3,  999.0,   -6.1,   -5.8,   -5.9,   -5.8,   -5.3,   -4.0,   -4.5,   -4.9,   -5.4,   -4.5,   -3.7,   -5.0,   -4.9,   -2.9,   -2.1,   -3.2,   -2.8,   -1.5,   -0.4,    0.0,   -0.7,   -1.2
2005/10/26 23:10,    1.6,   -2.3,   -3.3,   -5.2,   -3.1,   -1.8,  999.0,  999.0,   -2.3,   -2.7,   -8.4,   -4.5,   -4.5,   -3.5,   -3.4,   -4.0,   -4.0,   -4.3,   -4.1,   -4.2,   -3.9,   -2.5,   -1.6,   -2.6,   -2.5,   -2.1,   -0.8,   -1.4,  999.0,  999.0
2005/10/26 23:20,    0.5,   -0.2,  999.0,   -4.7,   -5.6,  999.0,  999.0,  999.0,   -2.1,    0.4,    0.8,  999.0,   -5.5,   -4.2,   -3.7,   -4.8,   -4.0,   -4.0,   -3.6,   -4.5,   -4.1,   -2.7,   -1.1,   -1.8,   -3.1,  999.0,  999.0,  999.0,  999.0,  999.0
2005/10/26 23:30,   -0.7,   -1.3,    1.6,  999.0,   -5.7,  999.0,   -9.9,   -2.2,   -1.4,   -1.5,    1.3,    0.2,  999.0,  999.0,  999.0,   -4.3,   -3.5,   -3.7,   -4.3,   -4.7,   -4.7,   -2.6,   -2.1,   -2.7,   -2.8,  999.0,  999.0,  999.0,  999.0,  999.0
2005/10/26 23:40,  999.0,  999.0,  999.0,   -0.7,  999.0,  999.0,   -8.1,   -1.4,   -1.6,    0.5,  999.0,  999.0,  999.0,  999.0,  999.0,   -3.9,   -3.4,   -2.8,   -2.2,   -2.8,   -3.3,  999.0,   -1.3,   -2.2,   -2.2,  999.0,  999.0,  999.0,  999.0,  999.0
2005/10/26 23:50,   -2.5,    1.6,  999.0,  999.0,    0.5,  999.0,   -7.9,   -3.0,   -3.1,   -0.9,    0.2,  999.0,  999.0,  999.0,  999.0,  999.0,   -3.0,   -2.8,   -2.5,   -2.8,   -2.1,  999.0,   -0.3,   -1.4,  999.0,  999.0,  999.0,  999.0,   -1.6,   -1.7
